Location: Maiden
(35.5760°N, 81.2120°W)
Time: 17:37:09
(UTC-04:00)

OAO 3 Rocket - Pass Details

Date: 14 June 2018
Orbit: 630 x 683 km, 35.0° (Epoch: 20 August)

Event Time Altitude Azimuth Distance (km) Brightness Sun altitude
Rises 22:17:37 0° 221° (SW) 3,010 6.5 -16.3°
Reaches altitude 10° 22:20:20 10° 208° (SSW) 2,091 5.6 -16.7°
Enters shadow 22:23:05 23° 177° (S) 1,413 4.5 -17.0°
